Regional Weather Roundup
Issued by NWS

Home | Current Version | Previous Version | Text Only | Print | Product List | Glossary Off
Versions: 1 2 3 4 5 6 7 8 9 10 11 12 13 14 15 16 17 18 19 20 21 22 23 24 25 26 27 28 29 30 31 32 33 34 35 36 37 38 39 40 41 42 43 44 45 46 47 48 49 50

000
ASUS45 KABQ 201601
RWRNM
WEATHER ROUNDUP FOR NEW MEXICO
NATIONAL WEATHER SERVICE ALBUQUERQUE NM
1000 AM MDT WED AUG 20 2014

NOTE: "FAIR" MEANS FEW OR NO CLOUDS BELOW 12,000 FEET AGL WITH NO
       SIGNIFICANT WEATHER OR OBSTRUCTIONS TO VISION.

      THIS PRODUCT IS RELEASED AS TWO VERSIONS.  ONE VERSION NEAR
      THE TOP OF THE HOUR CONTAINING PRELIMINARY DATA FROM ALBUQUERQUE
      AND OTHER STATIONS.  A FINAL VERSION WITH ADDITIONAL DATA IS
      ISSUED ABOUT 10 MINUTES AFTER THE HOUR.

NMZ501-503-504-510>518-201700-
NORTHWEST PLATEAU/NORTHCENTRAL MOUNTAINS

CITY           SKY/WX    TMP DP  RH WIND       PRES   REMARKS
FARMINGTON     SUNNY     69  54  58 CALM      30.11S
LOS ALAMOS     PTSUNNY   66  51  57 E6        30.21R
SANTA FE       CLOUDY    67  53  61 SW7       30.14S
TAOS           PTSUNNY   66  48  52 SW6       30.20S
ANGEL FIRE     FAIR      61  47  61 W10       30.26S

$$
NMZ402-403-502-505>509-201700-
WESTCENTRAL MOUNTAINS/SOUTHWEST MOUNTAINS

CITY           SKY/WX    TMP DP  RH WIND       PRES   REMARKS
GALLUP         SUNNY     65  50  58 W8        30.22R
SILVER CITY    MOSUNNY   72  52  49 MISG      30.16S

$$
NMZ407-409-411-412-201700-
SOUTHERN DESERTS

CITY           SKY/WX    TMP DP  RH WIND       PRES   REMARKS
LORDSBURG      FAIR      68  63  83 W10       30.12R
DEMING         SUNNY     76  55  48 W13       30.08R
LAS CRUCES     MOSUNNY   74  57  55 NW3       30.08R
ALAMOGORDO     PTSUNNY   72  55  56 SE10      30.05R
T OR C         PTSUNNY   75  54  47 NW5       30.08R

$$
NMZ519>523-201700-
CENTRAL VALLEYS/CENTRAL HIGHLANDS

CITY           SKY/WX    TMP DP  RH WIND       PRES   REMARKS
ALBUQUERQUE    PTSUNNY   73  53  49 NW6       30.12R
DOUBLE EAGLE   PTSUNNY   70  52  52 VRB6      30.15R
CLINES CORNERS PTSUNNY   66  50  56 NW16      30.17R
BELEN          FAIR      74  53  46 NW7       30.11S
SOCORRO        FAIR      78  48  34 N9        30.08S

$$
NMZ524>526-539-540-201700-
SOUTHCENTRAL MOUNTAINS

CITY           SKY/WX    TMP DP  RH WIND       PRES   REMARKS
RUIDOSO        NOT AVBL

$$
NMZ527>531-201700-
NORTHEAST HIGHLANDS/NORTHEAST PLAINS

CITY           SKY/WX    TMP DP  RH WIND       PRES   REMARKS
LAS VEGAS      PTSUNNY   73  49  42 SW8       30.13S
RATON          MOSUNNY   72  49  44 VRB3      30.06F
CLAYTON        MOSUNNY   86  51  29 S13       29.97R

$$
NMZ532>537-201700-
EASTCENTRAL PLAINS

CITY           SKY/WX    TMP DP  RH WIND       PRES   REMARKS
TUCUMCARI      SUNNY     85  56  37 SW10      29.93S
CANNON AFB     NOT AVBL
CLOVIS AIRPORT   N/A     81  61  50 S10       30.01S

$$
NMZ028-029-538-201700-
SOUTHEAST PLAINS

CITY           SKY/WX    TMP DP  RH WIND       PRES   REMARKS
ROSWELL        MOSUNNY   80  61  52 E6        29.96S
ARTESIA        SUNNY     81  57  44 S6        29.96S
CARLSBAD       PTSUNNY   83  59  44 N8        29.94S
HOBBS          SUNNY     84  57  39 S16       29.99S


$$


USA.gov is the U.S. government's official web portal to all federal, state and local government web resources and services.